GOES 15

Last updated on Feb. 20, 2020, 4:39 a.m. UTC

1 36411U 10008A   20050.81716230  .00000038  00000-0  00000-0 0  9990
2 36411   0.3933 276.6415 0001439 125.5659 272.7424  1.00269502 36525
UTC
Height (km)
Latitude
Longitude
Inclination
Orbital Period
UTC large
Height (km)
Speed (km/s)
/
Latitude / Longitude
Inclination (degrees)
Orbital Period (minutes)
Azimuth
Elevation
Range (km)
Doppler Factor
iOS Compass Heading
iOS Angle

Next 30 passes for location: Hong Kong

Rise time Rise Azimuth (degrees) Set time Set Azimuth (degrees) Duration Max altitude (degrees)

No matching passes for this satellites